www.pogodaiklimat.ru

Погода и климат >> Архив погоды >> Россия >> Якутия >> Белая Гора


ПОГОДА в Белой Горе

  • Прогноз погоды в Белой Горе
  • Монитор погоды в Белой Горе
  • Климат города

АРХИВ ПОГОДЫ в Белой Горе

Время (UTC), дата Ветер
(напр.,м/с)
 
Видим.   Явления Облачность Т
(С)
Тd
(С)
f
(%)
Тe
(С)
Тes
(С)
Комфортность P
(гПа)
Po
(гПа)
Тmin
(С)
Tmax
(С)
R
(мм)
S
(см)
15 14.02 Ю 1 н/о н/о -37.9 -41.7 67 -43 -43 опасность
обморожения
1024.1 1017.9
18 14.02 штиль 0 н/о н/о -38.5 -42.4 66 -39 -39 опасность
обморожения
1023.8 1017.7
21 14.02 СЗ 1 20 км 10/8 300 м
[Sc As op]
-37.0 -40.5 70 -42 -42 опасность
обморожения
1023.8 1017.7 -38.7 101
00 15.02 штиль 0 50 км {снег} ясно -38.0 -41.9 67 -38 -38 опасность
обморожения
1023.9 1017.8
03 15.02 штиль 0 50 км ясно -31.2 -34.6 72 -31 -31 опасность
обморожения
1023.5 1017.6
06 15.02 штиль 0 50 км ясно -33.6 -37.2 70 -34 -34 опасность
обморожения
1023.6 1017.6
09 15.02 штиль 0 н/о н/о -40.1 -44.2 65 -40 -40 опасность
обморожения
1024.6 1018.4 -30.5
12 15.02 штиль 0 н/о н/о -42.3 -46.7 62 -42 -42 опасность
обморожения
1024.5 1018.3
15 15.02 З 1 н/о н/о -43.7 -48.3 60 -49 -49 опасность
обморожения
1024.3 1018.0
18 15.02 штиль 0 н/о н/о -43.9 -48.5 60 -44 -44 опасность
обморожения
1023.9 1017.6
21 15.02 штиль 0 2000 м дымка ясно -43.5 -48.1 60 -44 -44 опасность
обморожения
1023.8 1017.5 -43.9 101
00 16.02 штиль 0 2000 м дымка ясно -43.2 -47.8 60 -43 -43 опасность
обморожения
1024.1 1017.8
03 16.02 штиль 0 4000 м дымка ясно -36.4 -39.9 70 -36 -36 опасность
обморожения
1023.6 1017.5
06 16.02 штиль 0 4000 м дымка ясно -36.5 -40.0 70 -37 -37 опасность
обморожения
1023.8 1017.7
09 16.02 штиль 0 2000 м дымка ясно -38.5 -42.7 64 -39 -39 опасность
обморожения
1024.1 1018.0 -36.4
12 16.02 штиль 0 н/о н/о -43.0 -47.5 61 -43 -43 опасность
обморожения
1024.2 1018.0
15 16.02 В 1 н/о н/о -44.1 -48.7 60 -50 -50 опасность
обморожения
1023.7 1017.4
18 16.02 СВ 1 н/о н/о -45.3 -50.1 58 -51 -51 опасность
обморожения
1023.2 1016.9
21 16.02 штиль 0 4000 м дымка ясно -45.0 -49.6 60 -45 -45 опасность
обморожения
1023.2 1016.9 -45.1 101
00 17.02 штиль 0 4000 м дымка ясно -44.2 -48.8 60 -44 -44 опасность
обморожения
1022.9 1016.6
03 17.02 штиль 0 4000 м дымка ясно -37.7 -41.9 65 -38 -37 опасность
обморожения
1022.2 1016.1
06 17.02 штиль 0 50 км 10/0
[Cs]
-35.4 -39.1 69 -35 -35 опасность
обморожения
1021.7 1015.7
09 17.02 СВ 1 н/о н/о -41.4 -45.7 63 -47 -47 опасность
обморожения
1021.6 1015.4 -33.8
12 17.02 СВ 1 н/о н/о -42.9 -47.4 61 -48 -48 опасность
обморожения
1021.8 1015.5
15 17.02 штиль 0 н/о н/о -43.8 -48.4 60 -44 -44 опасность
обморожения
1021.3 1015.0
18 17.02 штиль 0 н/о н/о -43.3 -47.9 60 -43 -43 опасность
обморожения
1020.6 1014.3
21 17.02 штиль 0 н/о н/о -44.8 -49.6 58 -45 -45 опасность
обморожения
1020.4 1014.1 -44.8
00 18.02 штиль 0 н/о н/о -42.7 -47.1 62 -43 -43 опасность
обморожения
1020.3 1014.0 -45.2
03 18.02 СВ 1 н/о н/о -38.5 -42.6 65 -44 -44 опасность
обморожения
1019.3 1013.1
06 18.02 штиль 0 н/о н/о -36.9 -41.0 66 -37 -37 опасность
обморожения
1019.1 1013.0
09 18.02 штиль 0 н/о н/о -44.3 -49.1 59 -44 -44 опасность
обморожения
1019.6 1013.3 -34.4
12 18.02 штиль 0 н/о н/о -45.7 -50.6 57 -46 -46 опасность
обморожения
1020.0 1013.7
15 18.02 штиль 0 н/о н/о -46.9 -51.9 56 -47 -47 опасность
обморожения
1020.0 1013.6
18 18.02 ЮВ 1 н/о н/о -47.6 -52.6 56 -54 -54 опасность
обморожения
1019.8 1013.4
21 18.02 штиль 0 н/о н/о -48.2 -53.3 55 -48 -48 опасность
обморожения
1020.4 1014.0 -48.2
00 19.02 штиль 0 н/о н/о -46.5 -51.4 57 -47 -47 опасность
обморожения
1020.9 1014.5 -48.8
03 19.02 СВ 1 н/о н/о -42.5 -47.1 60 -48 -48 опасность
обморожения
1020.4 1014.1
06 19.02 В 1 н/о н/о -40.3 -44.6 63 -46 -46 опасность
обморожения
1020.5 1014.3
09 19.02 СЗ 1 н/о н/о -45.2 -50.0 58 -51 -51 опасность
обморожения
1021.3 1015.0 -37.4
12 19.02 штиль 0 н/о н/о -46.3 -51.3 57 -46 -46 опасность
обморожения
1021.7 1015.3
15 19.02 штиль 0 н/о н/о -46.9 -52.0 56 -47 -47 опасность
обморожения
1021.6 1015.2
18 19.02 штиль 0 н/о н/о -47.8 -53.0 55 -48 -48 опасность
обморожения
1022.1 1015.7
21 19.02 штиль 0 4000 м дымка ясно -48.0 -53.8 51 -48 -48 опасность
обморожения
1022.7 1016.3 -48.1 101
00 20.02 штиль 0 4000 м дымка ясно -46.6 -51.8 55 -47 -46 опасность
обморожения
1023.3 1017.0
03 20.02 штиль 0 4000 м дымка ясно -41.0 -45.6 61 -41 -40 опасность
обморожения
1023.6 1017.4
06 20.02 штиль 0 50 км ясно -38.0 -42.8 61 -38 -38 опасность
обморожения
1023.7 1017.6
09 20.02 штиль 0 н/о н/о -44.4 -49.1 59 -44 -44 опасность
обморожения
1025.8 1019.4 -37.7
12 20.02 штиль 0 н/о н/о -46.0 -50.9 57 -46 -46 опасность
обморожения
1026.6 1020.2
15 20.02 штиль 0 н/о н/о -46.7 -51.7 56 -47 -47 опасность
обморожения
1027.3 1020.9
18 20.02 штиль 0 н/о н/о -47.4 -52.6 55 -47 -47 опасность
обморожения
1027.9 1021.5
21 20.02 штиль 0 4000 м дымка ясно -46.4 -51.6 55 -46 -46 опасность
обморожения
1028.7 1022.3 -47.4 101
00 21.02 штиль 0 4000 м дымка ясно -44.1 -49.3 56 -44 -44 опасность
обморожения
1028.9 1022.6
03 21.02 штиль 0 4000 м дымка ясно -39.6 -44.3 61 -40 -39 опасность
обморожения
1028.7 1022.5
06 21.02 ЮВ 1 50 км {снег} 4/0
[As op]
-36.6 -40.8 65 -41 -41 опасность
обморожения
1028.4 1022.3

 

Местоположение метеостанции Белая Гора (Якутия, Россия): широта 68.55 долгота 146.20 высота над уровнем моря 41 м.

В архиве по умолчанию представлена погода в Белой Горе за последнюю неделю. Архивные данные за месяц целиком и за предыдущие месяцы, начиная с января 2011 года, Вы можете получить, выбрав интересующий диапазон дат из раскрывающегося списка и нажав кнопку "Ввод!".

Внимание! Время в таблицах - всемирное. Для получения местного времени необходимо прибавить поправку, которая в Белой Горе равна 11 ч.

Смотрите также архив погоды в соседних городах и на ближайших метеорологических станциях:

Погода в Чокурдахе (Якутия, Россия) (238 км)
Погода в Усть-Моме (Якутия, Россия) (266 км)
Погода в Депутатском (Якутия, Россия) (272 км)
Погода в Среднеколымске (Якутия, Россия) (335 км)
Погода в Андрюшкино (Якутия, Россия) (340 км)
Погода в Зырянке (Якутия, Россия) (373 км)
Погода в Усть-Куйге (Якутия, Россия) (447 км)
Погода в Усть-Чарках (Якутия, Россия) (449 км)
Погода в Юбилейной (Якутия, Россия) (458 км)
Погода в Усть-Нере (Якутия, Россия) (468 км)

Пояснения к столбцам:

Ветер - указаны скорость ветра в м/с - средняя за 10 мин, порывы в срок и между сроками (в фигурных скобках) и направление, откуда дует ветер: С - северный, СВ - северо-восточный, В - восточный, ЮВ - юго-восточный, Ю - южный, ЮЗ - юго-западный, З - западный, СЗ - северо-западный.
Видимость - горизонтальная дальность видимости в метрах или километрах. При видимости от 1 до 10 км при отсутствии осадков обычно наблюдается дымка, при ухудшении видимости до 1 км и менее - туман. В сухую погоду видимость может ухудшаться дымом, пылью или мглою.
Явления - указаны атмосферные явления, наблюдавшиеся в срок или в последний час перед сроком; фигурными скобками обозначены явления, наблюдавшиеся между сроками (за 1-3 часа до срока); квадратными скобками обозначены град или гололедные отложения с указанием их диаметра в мм.
Облачность - указаны через наклонную черту общая и нижняя облачность в баллах и высота нижней границы облаков в метрах; квадратными скобками обозначены формы облаков: Ci - перистые, Cs - перисто-слоистые, Cc - перисто-кучевые, Ac - высококучевые, As - высокослоистые, Sc - слоисто-кучевые, Ns - слоисто-дождевые, Cu - кучевые, Cb - кучево-дождевые. Подробнее классификацию облаков см. в Атласе облаков (PDF).
T - Температура воздуха - температура, измеренная на высоте 2 м над землей.
Td - Температура точки росы - температура, при понижении до которой содержащийся в воздухе водяной пар достигнет насыщения.
f - Относительная влажность воздуха - влажноcть воздуха, измеренная на высоте 2 м над землей.
Te - Эффективная температура - температура, которую ощущает одетый по сезону человек в тени. Характеристика душности погоды. При расчете учитывается влияние влажности воздуха и скорости ветра на теплоощущения человека.
Tes - Эффективная температура на солнце - температура, которую ощущает человек, с поправкой на солнечный нагрев. Характеристика знойности погоды. Зависит от высоты солнца над горизонтом, облачности и скорости ветра. Ночью, в пасмурную погоду, а также при ветре 12 м/с и более поправка равна нулю.
P - Атмосферное давление - приведенное к уровню моря атмосферное давление.
Po - Атмосферное давление - измеренное на уровне метеостанции атмосферное давление.
Tmin - Минимальная температура - минимум температуры воздуха на высоте 2 м над землей.
Tmax - Максимальная температура - максимум температуры воздуха на высоте 2 м над землей.
R - Количество осадков - Количество выпавших осадков, мм. При наведении курсора мыши на число - период времени, за который выпало указанное количество осадков.
S - Снежный покров - Высота снежного покрова, см. При наведении курсора мыши на число - состояние снежного покрова и степень покрытия местности в баллах.